Location: ????????
(55.3155°N, 39.2900°E)
Time: 19:27:57
(UTC+00:00)

ACS3 Solar Sail - Pass Details

Date: 20 November 2025
Orbit: 889 x 1003 km, 97.3° (Epoch: 06 December)

Event Time Altitude Azimuth Distance (km) Brightness Sun altitude
Rises 13:50:43 0° 231° (SW) 3,493 6.8 -5.8°
Reaches altitude 10° 13:54:58 10° 262° (W) 2,562 5.5 -6.3°
Maximum altitude 13:57:01 12° 283° (WNW) 2,433 4.7 -6.6°
Drops below altitude 10° 13:59:05 10° 305° (NW) 2,578 4.5 -6.8°
Sets 14:03:26 0° 336° (NNW) 3,544 4.7 -7.4°
